Lapse_Rate
5.8 6.0 5.8 6.0 5.8 6.4 6.4 6.0 6.0 5.8 5.9 6.0 5.7 5.5 5.4 5.8 5.7 5.8 6.1 6.2 5.9 5.8 5.9 6.0 5.9 5.8 5.8 5.7 5.6 5.4 5.4 5.5 5.5 5.5 5.7 5.8 5.8 5.9 6.0 6.0 6.0 6.1 6.2 6.2 6.2 6.3 6.2 6.1 6.0
5.6 5.7 5.9 6.0 6.4 7.3 6.2 5.6 5.9 6.0 6.1 6.0 5.9 5.5 5.3 5.5 5.7 5.8 6.0 6.2 6.0 5.8 5.9 6.0 5.9 5.9 5.7 5.8 5.6 5.5 5.4 5.5 5.5 5.6 5.7 5.7 5.8 5.8 5.9 6.0 6.0 5.9 6.1 6.1 6.2 6.3 6.1 5.9 5.9
5.7 5.9 6.0 5.7 6.4 6.5 6.4 5.8 5.8 6.3 6.3 5.6 5.9 5.6 5.5 5.7 5.7 5.7 6.0 6.3 6.1 5.9 5.8 5.9 5.9 5.8 5.8 5.8 5.7 5.5 5.5 5.4 5.7 5.5 5.6 5.6 5.8 5.7 5.8 5.8 5.9 5.9 6.0 6.0 6.2 6.1 6.0 6.1 6.0
5.8 5.9 6.0 6.4 6.5 6.8 6.4 6.2 6.6 6.3 6.1 6.1 6.2 5.5 5.6 5.9 5.8 5.8 6.0 6.1 6.2 5.9 5.8 5.8 5.9 5.9 5.9 5.7 5.6 5.6 5.5 5.4 5.4 5.4 5.6 5.4 5.4 5.4 5.7 5.7 5.7 5.8 5.8 5.9 5.9 5.9 5.9 5.6 5.4
6.1 6.0 6.2 6.6 6.6 6.6 6.8 6.9 6.6 6.4 6.0 6.1 6.0 5.6 5.8 5.9 5.9 5.7 5.8 5.8 6.0 6.0 5.8 5.7 5.8 6.0 5.8 5.8 5.7 5.6 5.4 5.4 5.2 5.2 5.2 5.2 5.3 5.1 5.3 5.6 5.5 5.7 5.8 5.7 5.5 5.6 5.6 5.5 5.2
6.0 6.5 6.8 6.6 6.7 6.8 6.7 6.6 6.6 6.4 6.3 6.2 5.8 5.6 5.6 5.8 5.9 5.7 5.6 5.7 5.8 6.0 5.7 5.6 5.8 5.9 5.8 5.8 5.6 5.5 5.3 5.2 5.1 5.1 5.1 4.9 5.0 4.9 5.3 5.4 5.4 5.5 5.6 5.6 5.4 5.6 5.5 5.6 5.4
6.5 6.7 6.9 7.0 6.7 6.7 6.8 6.8 6.8 6.2 6.3 5.6 6.0 5.6 5.9 5.9 6.0 5.9 5.6 5.6 5.7 5.8 5.8 5.7 5.8 5.9 5.9 5.7 5.6 5.3 5.1 4.9 4.9 5.0 4.9 5.0 5.1 4.9 5.1 5.2 5.3 5.3 5.4 5.3 5.4 5.5 5.7 5.8 5.3
7.2 7.0 7.1 7.1 6.7 6.9 6.8 6.9 6.8 6.5 6.2 6.3 6.1 5.8 6.0 5.9 5.8 6.0 6.0 5.9 5.7 5.8 5.8 5.7 5.7 5.9 5.9 5.7 5.4 5.1 5.1 5.0 5.0 4.9 5.0 5.1 5.0 5.1 4.9 5.2 5.2 5.1 5.3 5.4 5.5 5.6 5.8 5.8 5.4
7.4 7.6 7.5 7.2 7.2 6.8 7.1 7.0 7.0 6.9 6.8 6.5 6.4 6.2 5.9 5.8 5.7 6.0 6.1 6.1 5.8 5.9 5.9 5.8 5.7 5.7 5.7 5.5 5.1 5.0 5.2 5.2 4.9 5.0 5.0 5.1 5.3 5.0 4.9 4.8 5.2 5.0 5.3 5.4 5.4 5.6 5.9 5.6 5.3
7.2 7.8 7.3 7.0 7.0 7.3 7.4 7.5 7.6 7.4 7.0 7.0 6.6 6.2 6.1 6.0 5.8 5.9 6.1 6.0 5.9 5.8 5.8 5.7 5.7 5.7 5.6 5.5 5.3 5.2 5.3 5.3 5.2 5.2 5.0 5.0 5.0 4.9 4.9 5.0 5.1 5.1 5.2 5.3 5.4 5.7 5.8 5.6 5.2
7.7 7.3 7.4 7.5 7.6 7.4 7.6 7.7 7.6 7.3 7.1 6.7 6.7 6.6 6.1 5.9 5.6 5.7 5.8 5.6 5.6 5.5 5.6 5.8 5.8 5.8 5.5 5.6 5.3 5.4 5.4 5.3 5.3 5.1 4.9 4.9 5.0 5.0 5.0 5.2 5.2 5.0 5.2 5.4 5.4 5.7 5.5 5.6 5.4
7.7 7.7 7.9 7.8 7.7 7.8 7.5 7.5 7.4 7.2 7.2 7.1 6.7 6.6 6.1 5.7 5.5 5.6 5.8 5.6 5.5 5.2 5.5 5.6 5.7 5.8 5.7 5.5 5.5 5.3 5.3 5.2 5.3 5.3 5.4 5.2 5.1 5.2 5.2 5.1 5.0 5.1 5.3 5.5 5.6 5.5 5.5 5.5 5.4
8.0 8.0 8.1 7.9 7.9 8.1 7.9 7.8 7.2 7.5 7.4 7.0 6.6 6.5 6.3 5.8 5.5 5.5 5.3 5.5 5.4 5.5 5.4 5.3 5.6 5.7 5.6 5.5 5.4 5.3 5.4 5.3 5.3 5.3 5.3 5.2 5.2 5.1 5.3 5.1 5.2 5.2 5.4 5.6 5.7 5.5 5.6 5.5 5.5
8.2 8.3 8.2 8.1 8.3 8.3 8.2 8.1 7.6 7.6 7.6 7.3 6.9 6.6 6.4 6.2 6.1 5.7 5.6 5.9 5.6 5.5 5.3 5.2 5.2 5.5 5.6 5.6 5.4 5.4 5.4 5.4 5.5 5.5 5.5 5.4 5.2 5.2 5.3 5.3 5.2 5.3 5.5 5.7 5.4 5.5 5.6 5.4 5.6
8.1 8.3 8.3 8.1 8.2 8.3 8.1 7.3 7.5 7.6 7.4 7.1 6.7 6.3 6.2 5.9 5.8 5.6 5.7 5.9 5.9 5.6 5.3 5.3 5.2 5.5 5.7 5.5 5.4 5.5 5.4 5.7 5.8 5.6 5.5 5.3 5.0 5.3 5.2 5.2 5.3 5.3 5.5 5.4 5.4 5.4 5.4 5.4 5.4
8.1 8.6 9.4 8.7 8.6 8.5 8.1 7.4 7.6 7.4 7.2 7.0 6.8 6.7 6.4 6.0 6.1 5.9 5.2 5.3 5.6 5.8 5.7 5.5 5.3 5.6 5.7 5.5 5.6 5.6 5.4 5.6 5.7 5.6 5.5 5.3 5.5 5.2 5.2 5.2 5.3 5.4 5.2 5.3 5.4 5.4 5.4 5.4 5.4
8.8 9.5 9.0 8.8 8.5 8.1 8.0 7.4 7.6 7.3 7.1 6.7 6.3 6.0 5.8 6.0 6.0 5.7 5.7 5.3 6.0 6.2 5.8 5.8 5.6 5.5 5.8 5.6 5.7 5.7 5.6 5.7 5.8 5.6 5.5 5.4 5.5 5.5 5.1 5.3 5.4 5.4 5.2 5.4 5.4 5.5 5.6 5.4 5.4
9.2 9.4 9.0 8.9 8.1 8.0 7.8 7.8 7.4 7.2 7.0 6.8 6.1 5.7 5.3 5.6 5.5 5.7 5.5 5.9 6.2 6.1 6.0 5.7 5.8 5.6 5.7 5.8 5.7 5.6 5.5 5.6 5.5 5.6 5.5 5.6 5.5 5.4 5.2 5.1 5.2 5.3 5.1 5.2 5.4 5.5 5.5 5.3 5.5
8.4 8.7 9.0 8.6 8.4 8.1 7.8 7.1 7.3 7.1 7.0 6.7 6.0 6.0 5.1 4.9 5.2 5.8 6.0 6.3 6.3 5.9 5.7 5.6 5.5 5.7 5.7 5.6 5.5 5.5 5.5 5.7 5.8 5.6 5.4 5.4 5.3 5.2 5.1 5.0 5.1 5.1 5.2 5.2 5.4 5.5 5.4 5.4 5.5
8.6 8.8 9.2 8.7 8.7 8.4 7.8 7.3 7.2 7.0 6.9 6.7 6.3 6.6 5.7 5.6 5.7 5.9 6.1 5.8 5.5 5.4 5.7 5.7 5.6 5.6 5.8 5.7 5.8 5.6 5.7 5.8 5.8 6.0 5.5 5.4 5.1 5.0 5.0 5.1 5.1 5.1 5.2 5.3 5.3 5.4 5.5 5.6 5.4
9.0 9.3 9.3 9.2 8.8 8.3 8.0 7.8 6.9 6.9 6.9 6.8 6.7 6.4 6.1 5.7 5.5 5.8 5.6 5.4 5.5 5.6 5.7 5.6 5.7 5.8 6.0 5.8 5.9 5.7 5.7 6.0 5.7 5.4 5.2 5.1 5.1 5.0 5.1 5.1 5.3 5.3 5.4 5.4 5.4 5.4 5.6 5.8 5.6
9.4 8.7 8.9 9.0 8.9 9.2 8.4 8.9 7.4 6.8 6.8 7.0 6.8 6.6 6.2 5.8 5.5 5.8 5.6 5.5 5.6 5.6 5.6 5.7 5.6 5.6 5.6 5.7 5.7 5.7 5.8 5.8 5.8 5.6 5.5 5.4 5.2 5.4 5.3 5.3 5.4 5.5 5.5 5.7 5.5 5.5 5.6 5.7 5.7
9.3 8.7 9.0 9.2 9.3 9.0 8.5 8.9 7.9 7.3 7.2 6.8 6.6 6.4 6.1 5.8 5.6 5.5 5.5 5.7 5.6 5.7 5.8 5.9 5.9 5.8 5.7 5.6 5.7 5.8 5.8 5.9 5.9 5.9 5.8 5.4 5.6 5.8 6.0 5.8 5.6 5.6 5.7 5.7 5.6 5.6 5.5 5.6 5.6
8.6 8.6 8.9 9.1 9.4 9.5 8.9 8.8 8.5 8.1 7.4 7.0 6.8 6.6 6.3 6.2 6.1 6.3 6.2 6.1 6.0 5.9 5.8 5.8 5.9 6.0 6.1 6.1 6.0 5.9 6.0 5.9 5.9 5.8 5.8 5.9 5.8 5.6 5.8 5.9 5.9 5.9 5.7 6.0 5.9 5.8 5.7 5.7 5.6
8.7 9.2 9.4 9.6 9.6 9.3 8.2 8.5 8.2 7.7 7.1 7.1 7.0 6.7 6.5 6.7 6.5 6.4 6.3 6.1 6.1 6.0 6.1 6.1 6.2 6.2 6.1 6.2 6.3 6.3 6.2 6.1 6.0 5.8 5.9 5.9 5.8 5.7 5.7 5.7 5.6 5.7 5.9 5.8 5.8 5.7 5.7 5.7 5.4
9.0 9.4 9.4 9.4 9.6 9.2 8.2 9.0 8.3 7.5 7.9 7.7 7.0 6.9 6.6 6.4 6.4 6.5 6.6 6.7 6.4 6.4 6.4 6.6 6.5 6.5 6.4 6.4 6.4 6.4 6.5 6.4 6.2 6.1 5.9 5.8 5.7 5.6 5.7 5.7 5.7 5.6 5.5 5.5 5.6 5.5 5.5 5.6 5.6
9.2 8.9 9.5 9.6 9.4 9.5 9.3 8.3 8.0 7.3 7.9 7.7 7.1 7.1 7.0 6.7 6.5 6.8 6.9 7.0 6.8 6.5 6.6 6.7 6.6 6.5 6.5 6.6 6.7 6.7 6.6 6.5 6.3 5.9 5.9 6.1 5.9 5.8 5.8 5.8 5.9 6.0 6.0 6.1 5.9 5.7 5.7 5.6 5.5
9.0 9.4 9.4 9.5 9.5 9.5 9.4 9.0 9.3 7.7 7.7 7.3 7.2 7.3 7.1 7.0 6.9 6.9 6.8 6.7 7.0 6.9 6.8 6.7 6.6 6.4 6.3 6.4 6.5 6.5 6.5 6.4 5.9 5.8 5.7 5.7 6.0 6.2 6.1 5.9 5.9 5.9 5.9 5.9 6.1 6.2 6.1 6.1 6.1
9.3 9.5 9.4 9.3 9.5 9.5 9.7 9.4 8.9 8.6 7.8 7.7 7.4 7.3 6.9 7.1 7.3 7.0 7.1 6.9 6.9 7.0 6.8 6.7 6.6 6.7 6.8 6.7 6.3 6.2 6.2 6.1 6.2 6.0 6.0 6.2 6.2 6.2 6.2 6.2 6.0 6.0 6.0 5.9 6.0 6.0 5.8 5.9 6.0
9.0 9.6 9.5 9.4 9.5 9.5 9.1 9.3 8.9 8.2 7.9 7.6 8.1 7.9 7.2 7.5 7.5 7.3 7.2 7.1 6.9 7.1 7.2 7.1 6.9 6.7 6.6 6.6 6.5 6.3 6.3 6.2 6.3 6.1 6.2 6.0 6.0 5.9 6.3 6.1 6.0 6.0 6.1 6.1 6.1 6.0 5.8 5.7 5.7
Wind_Speed
9 3 2 4 5 4 5 6 2 7 5 5 6 0 7 6 6 4 13 11 20 19 21 18 17 19 20 21 21 18 20 19 19 17 16 14 13 13 12 11 11 12 11 12 13 13 13 14 15
2 1 4 2 3 6 5 6 7 6 4 4 6 4 2 7 10 10 14 16 20 20 22 22 18 19 19 20 20 19 18 19 18 17 16 14 13 11 11 11 11 11 10 11 11 12 12 12 13
2 3 3 3 2 6 7 6 5 6 5 3 3 3 3 4 5 15 16 20 20 19 21 23 19 20 20 19 19 19 18 18 18 17 15 13 12 11 10 9 9 9 8 9 9 10 11 12 12
3 4 4 2 9 5 4 4 5 6 4 3 3 6 8 7 12 8 20 20 18 17 21 21 19 20 19 19 19 19 19 18 17 16 15 13 12 11 9 7 7 7 7 7 7 7 9 10 11
4 2 3 4 6 5 3 5 4 2 4 4 0 6 6 9 8 19 20 17 18 14 20 22 19 19 18 19 18 17 16 16 16 14 12 11 11 9 8 6 5 4 4 4 4 5 7 10 9
4 3 6 6 3 2 5 5 3 5 4 3 2 7 8 11 17 18 18 17 17 18 18 21 18 17 18 16 17 17 15 14 12 11 9 9 7 7 6 4 2 2 2 2 3 4 6 9 9
4 2 6 10 8 3 4 6 8 6 5 2 4 6 7 12 15 16 17 15 15 19 15 19 19 18 17 16 16 15 14 12 10 7 5 5 5 4 4 3 1 1 3 3 5 5 5 8 10
4 3 5 5 5 4 6 7 2 5 4 5 2 3 9 13 16 17 16 15 14 14 16 14 17 17 15 16 14 13 13 11 9 9 10 4 2 3 2 1 3 4 5 6 7 4 5 7 9
3 2 5 8 4 5 5 9 4 3 6 3 4 5 12 19 17 17 15 15 13 12 15 17 16 16 15 14 15 14 13 14 14 15 8 13 4 3 3 3 5 6 7 8 5 3 4 6 8
3 1 6 5 4 5 8 8 8 6 7 6 8 10 19 19 17 18 17 15 16 16 13 13 13 15 16 13 14 13 14 13 11 15 21 17 3 6 8 6 6 8 7 7 5 4 6 9 7
0 4 4 2 3 3 3 9 7 8 5 5 9 15 18 20 18 18 18 18 18 17 13 12 12 13 14 13 13 12 11 14 14 16 16 10 2 7 4 6 9 7 10 10 7 9 7 3 6
3 3 4 4 3 1 4 2 4 7 5 7 6 16 18 18 18 17 17 15 14 14 15 15 13 11 13 15 13 12 11 12 13 14 13 9 7 6 6 6 4 3 8 3 4 5 4 6 5
4 4 5 5 8 7 4 2 3 6 8 4 10 15 17 17 15 13 13 13 12 14 14 12 12 10 10 8 8 11 10 10 11 10 13 12 11 4 6 5 8 1 7 5 4 5 5 5 7
6 8 7 3 5 1 3 5 2 9 3 7 11 14 14 18 17 13 14 14 13 12 13 12 11 12 12 9 9 7 8 12 10 10 8 8 8 6 5 7 8 4 3 6 6 5 5 5 5
5 6 2 4 6 3 8 6 7 5 5 10 12 10 10 11 10 12 11 11 12 11 13 13 13 13 11 10 8 9 7 9 1 2 6 7 7 7 7 7 7 8 3 7 5 4 5 3 7
5 4 5 7 10 3 7 7 5 3 7 9 10 9 10 12 13 10 10 4 10 12 12 12 11 13 12 10 10 8 7 5 4 5 5 10 9 8 6 6 7 7 6 5 4 4 4 2 6
4 2 3 5 9 1 6 8 4 3 5 8 7 7 10 11 7 6 4 10 9 11 12 12 11 12 10 10 7 9 8 9 6 4 4 8 11 9 10 7 11 7 6 4 2 3 1 3 6
3 4 3 6 5 5 9 8 4 4 4 5 6 6 5 5 8 9 11 6 8 9 10 11 9 10 9 6 7 5 6 7 6 8 6 6 8 10 9 8 11 11 4 3 5 4 4 2 5
7 7 6 5 2 2 6 7 4 4 4 4 1 2 9 9 2 9 10 6 7 9 10 10 11 10 8 7 6 5 6 5 6 7 7 6 6 9 10 9 9 12 5 4 4 3 5 6 2
8 8 4 5 1 2 4 8 6 5 2 1 7 10 14 12 9 11 10 7 8 9 9 10 10 11 9 6 6 5 4 7 4 6 7 12 13 13 11 12 5 11 5 5 5 4 4 3 2
10 8 7 6 5 4 5 8 7 7 5 4 6 10 12 14 12 12 10 7 8 8 8 9 10 9 9 9 5 5 6 5 4 4 5 8 16 16 14 14 10 7 8 8 6 4 4 3 2
12 5 6 5 8 2 6 2 5 6 5 6 9 11 11 11 9 11 9 9 10 9 9 9 9 9 10 10 7 5 5 5 3 2 3 7 13 15 16 16 14 12 8 7 6 6 5 2 5
3 4 5 5 6 6 8 8 9 5 7 9 10 12 13 13 14 11 8 8 8 8 9 9 9 10 9 11 10 7 8 6 4 4 7 7 8 13 15 14 14 10 9 8 7 5 6 4 4
7 8 4 6 6 10 7 7 9 6 7 10 12 12 13 13 11 9 6 7 7 8 8 9 10 9 10 11 12 12 10 7 5 6 5 4 5 7 9 10 10 11 10 9 7 8 7 7 3
9 11 8 9 6 1 5 5 9 10 8 9 13 14 15 14 13 11 10 7 6 6 7 7 9 9 10 12 11 10 9 6 7 6 5 5 3 4 7 9 9 9 10 9 8 8 7 6 5
14 15 7 5 3 1 4 3 8 10 10 8 9 16 16 16 14 12 11 9 7 6 6 5 6 8 9 9 10 9 8 6 5 6 5 5 5 5 4 7 9 10 11 12 10 8 7 8 6
9 11 9 6 7 7 5 4 7 8 9 10 14 17 17 15 14 13 11 10 8 8 6 5 4 4 6 9 9 8 8 7 5 4 5 5 5 5 6 7 9 9 10 11 11 9 9 8 8
10 4 9 10 5 7 5 3 4 16 15 14 15 17 16 15 12 10 8 8 7 7 6 7 7 6 3 5 6 5 4 6 7 7 7 6 5 7 6 8 9 10 11 12 12 11 11 10 9
9 10 10 8 7 4 4 6 5 17 18 18 15 14 15 14 13 9 7 6 6 7 7 7 5 3 0 3 3 3 3 3 4 6 7 6 7 7 9 9 9 10 11 12 13 13 12 12 12
9 14 16 11 12 7 8 3 3 13 17 17 16 13 11 11 11 12 11 10 10 12 12 12 11 9 7 6 5 6 5 2 2 6 8 6 6 7 9 10 11 11 12 11 13 14 14 14 15
Wind_Direction
197 215 245 241 235 215 108 90 94 102 119 68 122 63 30 23 0 58 136 139 147 143 142 145 139 144 144 143 143 145 145 144 144 143 139 133 124 117 110 104 99 99 97 105 103 104 106 105 112
160 250 231 286 249 149 104 117 104 67 59 136 153 191 106 85 54 128 134 150 152 146 150 142 137 138 141 144 144 147 148 147 148 148 144 140 129 122 117 112 106 101 98 96 95 108 108 105 102
228 267 270 279 149 97 121 132 85 110 124 66 105 51 34 69 73 143 126 153 151 149 149 134 140 139 140 141 146 149 151 153 153 154 151 142 134 132 129 124 117 108 103 97 98 104 108 110 111
249 189 209 115 90 95 71 107 129 131 131 48 75 82 103 29 154 143 145 154 150 152 145 138 142 141 140 143 148 153 155 154 154 157 153 147 142 141 134 129 121 117 112 109 106 111 117 126 133
240 250 119 78 88 99 85 89 143 124 63 78 122 96 74 80 128 137 146 156 144 165 138 153 148 145 146 148 147 148 151 155 153 151 150 150 142 144 140 141 139 135 132 128 132 146 139 143 152
212 269 126 99 110 167 167 140 158 212 188 99 160 107 78 112 138 145 150 155 155 151 160 150 152 153 153 155 152 151 155 156 153 156 158 149 148 146 154 157 158 166 189 185 184 198 163 171 173
331 297 77 103 137 189 188 166 220 194 214 176 145 128 112 141 142 149 154 153 162 151 153 161 163 162 161 166 164 160 161 161 157 150 163 153 162 158 134 111 58 340 283 250 235 224 183 180 190
302 297 120 94 145 121 195 192 297 225 130 98 209 142 159 152 154 154 155 153 161 160 153 162 165 167 165 163 172 163 165 161 144 86 3 306 195 134 132 201 90 329 310 278 257 220 189 188 201
308 205 95 87 89 100 167 192 188 199 147 168 99 68 122 151 158 158 160 157 159 171 169 164 176 168 171 172 170 174 174 155 130 134 194 291 338 350 28 332 334 303 298 295 271 230 226 211 206
287 343 48 357 350 81 169 209 177 190 188 161 126 102 131 149 161 165 167 173 171 171 182 169 178 180 173 177 172 188 160 155 156 160 178 227 279 338 298 310 301 278 265 271 255 251 248 224 247
252 18 344 324 328 300 178 206 209 227 202 207 188 158 149 158 173 173 176 182 176 172 173 172 184 185 180 149 182 184 150 176 184 185 182 190 353 272 257 282 276 267 192 253 202 199 224 279 237
275 60 285 338 15 276 233 299 212 240 67 349 168 168 158 169 179 176 178 181 174 176 176 182 178 185 186 166 190 171 171 197 188 199 187 166 185 240 258 257 296 269 249 307 246 261 238 240 227
273 344 302 297 306 276 276 31 68 35 336 257 135 157 163 173 175 175 166 169 176 178 183 190 183 184 195 204 184 184 197 187 206 180 191 184 197 178 306 299 290 165 265 264 282 259 252 241 240
331 307 309 353 31 76 170 71 229 25 12 136 154 152 167 177 173 171 173 169 177 184 176 190 197 192 197 206 201 193 193 201 156 200 173 184 158 157 241 274 288 228 267 300 283 269 275 251 272
293 280 197 42 348 69 142 88 48 47 103 130 130 152 164 184 162 188 182 174 178 183 177 180 206 198 201 210 209 218 204 238 118 253 175 157 169 171 185 252 269 285 322 286 256 249 240 273 280
274 236 203 68 359 86 226 88 72 85 125 129 128 138 172 199 169 200 146 198 173 176 195 177 192 201 196 205 212 217 207 257 216 209 209 163 196 189 190 266 264 275 282 297 274 266 263 176 277
233 90 13 124 34 151 228 107 102 133 144 145 156 168 187 183 198 186 187 191 174 174 182 185 190 200 189 202 211 222 228 217 248 253 203 180 190 186 222 244 252 263 272 286 247 252 151 264 277
64 343 352 11 52 74 82 90 117 143 190 196 219 271 184 145 159 136 231 189 170 173 182 187 194 193 193 187 207 221 237 238 211 228 203 213 182 199 211 231 259 270 269 285 246 276 302 223 277
318 305 317 78 91 72 68 92 117 147 195 214 160 72 140 113 121 180 200 200 171 172 178 189 197 189 189 200 209 226 241 237 224 233 213 173 197 229 213 221 238 254 244 261 263 263 224 250 231
292 287 288 124 120 241 129 105 113 131 114 147 129 115 142 163 196 194 191 202 177 173 181 184 195 194 202 194 209 221 241 233 200 180 178 196 200 215 223 233 210 244 246 248 250 245 273 256 219
262 285 304 298 136 118 174 143 141 122 146 138 141 142 151 165 160 167 176 175 169 168 180 188 194 193 198 202 204 218 241 245 228 230 204 204 212 214 217 227 222 238 239 222 234 210 243 253 282
262 0 286 252 232 211 227 79 153 143 137 181 161 163 161 172 167 152 158 168 169 169 171 175 180 179 194 184 209 214 233 241 222 198 212 210 206 213 214 210 217 219 230 232 232 231 276 213 250
334 335 291 241 237 226 169 261 116 164 157 155 175 167 164 161 160 154 164 158 151 166 178 182 184 181 187 184 219 224 229 244 234 209 210 214 190 207 215 208 215 216 223 212 249 256 241 228 277
303 268 208 198 227 236 108 273 150 150 126 140 155 157 160 160 156 159 153 172 182 182 193 186 189 196 198 208 214 221 231 238 214 222 231 240 191 191 214 217 214 215 223 226 227 234 235 261 269
239 227 222 218 204 165 101 253 69 126 141 141 154 154 160 159 166 171 174 184 193 194 210 202 202 210 209 213 222 230 247 248 252 251 238 227 257 240 192 211 213 218 219 233 232 233 251 237 254
211 234 241 270 215 159 148 253 115 129 140 157 171 159 164 172 178 174 168 175 194 213 226 219 212 224 220 227 233 234 236 240 244 222 273 261 241 212 191 205 217 228 227 223 230 235 233 237 233
180 235 288 278 209 266 110 137 156 156 153 169 178 165 169 172 172 173 180 179 193 218 209 190 200 198 213 217 225 225 227 234 273 253 231 223 226 239 218 219 219 226 226 225 233 234 245 252 237
274 213 214 235 239 258 140 223 103 178 176 171 173 174 168 162 164 161 173 174 178 196 193 177 201 250 238 239 235 240 242 217 232 234 231 230 239 224 234 218 221 226 225 222 223 235 230 244 248
191 222 238 284 275 301 252 113 126 183 177 170 175 167 160 158 149 144 139 136 133 120 113 116 124 120 54 347 336 302 276 265 233 240 251 235 229 229 225 227 234 227 228 226 225 235 248 234 235
291 246 217 230 196 247 305 53 117 176 175 172 166 170 154 142 143 135 125 110 107 101 99 97 96 92 71 49 30 24 16 114 259 266 268 262 253 236 232 234 231 231 226 229 230 235 242 234 242